Regional Weather Roundup
Issued by NWS

Home | Current Version | Previous Version | Text Only | Print | Product List | Glossary Off
Versions: 1 2 3 4 5 6 7 8 9 10 11 12 13 14 15 16 17 18 19 20 21 22 23 24 25 26 27 28 29 30 31 32 33 34 35 36 37 38 39 40 41 42 43 44 45 46 47 48 49 50

000
ASUS43 KLOT 280908
RWRIL

ILLINOIS REGIONAL WEATHER ROUNDUP
NATIONAL WEATHER SERVICE CHICAGO/ROMEOVILLE IL
400 AM CDT THU APR 28 2016

NOTE: "FAIR" INDICATES FEW OR NO CLOUDS BELOW 12,000 FEET WITH NO
SIGNIFICANT WEATHER AND/OR OBSTRUCTIONS TO VISIBILITY.

* THESE STATIONS ARE NOT UNDER NWS QUALITY CONTROL. THEY ALSO MAY NOT
  REPORT WEATHER SUCH AS PRECIPITATION OR FOG.

ILZ001-002-007-009-015-016-024-281000-
NORTHWEST ILLINOIS

CITY           SKY/WX    TMP DP  RH WIND       PRES   REMARKS
MOLINE         CLOUDY    49  46  90 E6        29.71R FOG
STERLING*      CLOUDY    46  45  93 E23       29.67F
SAVANNA*       MOCLDY    46  43  89 NE18G29   29.71S
$$

ILZ003-004-008-010-011-017-018-281000-
NORTH CENTRAL ILLINOIS

CITY           SKY/WX    TMP DP  RH WIND       PRES   REMARKS
ROCKFORD       DRIZZLE   45  42  89 E10       29.81S
FREEPORT*      CLOUDY    44  42  95 E16       29.78S
ROCHELLE*      LGT RAIN  44  42  93 NE18G26   29.74F
DE KALB*       LGT RAIN  44  42  95 E17       29.79F
$$

ILZ005-006-012>014-019>023-281000-
NORTHEAST ILLINOIS

CITY           SKY/WX    TMP DP  RH WIND       PRES   REMARKS
CHICAGO-OHARE  LGT RAIN  43  42  97 NE12      29.85R FOG
CHICAGO-MIDWAY LGT RAIN  46  43  89 NE6       29.84R FOG
AURORA         MOCLDY    45  43  93 NE16      29.78F FOG
LANSING*       CLOUDY    46  43  88 W5        29.85R
JOLIET*        MOCLDY    46  45  95 NE12      29.78F
WAUKEGAN       LGT RAIN  43  41  93 E15G23    29.85S
DUPAGE AIRPORT CLOUDY    44  40  85 NE12      29.82R FOG
KANKAKEE*      CLOUDY    47  44  90 E9        29.81F
WHEELING       TSTM      43  42  97 NE6G18    29.89R FOG
MORRIS*        MOCLDY    46  44  94 E8        29.76F
ROMEOVILLE*    CLOUDY    44  42  91 NE13      29.79F FOG
NORTHERLY ISL    N/A     44  42  93 NE16        N/A
NORTHERLY ISL    N/A     44  42  93 NE16        N/A
$$

LMZ740>746-281000-
SOUTHERN LAKE MICHIGAN

STATION/POSITION SKY/WX   TEMP    WIND        PRES    VSBY  WAVE
                          AIR SEA DIR/SP/G                  HT/PER
                          (F)     (DEG/KT/KT) (MB)    (MI)  (FT/S)
SOUTHERN BUOY              43 40   80/  6/  8 1012.4R         3/ 6
HARRISON CRIB              44      30/ 12/ 13   N/A
BURNHAM HARBOR             44     350/  4/ 17   N/A
CALUMET HARBOR             47      40/  7/  8 1009.3R
BURNS HARBOR               48     110/ 10/ 17 1009.5S
MICHIGAN CITY              47      90/ 13/ 18   N/A
ST. JOSEPH                 48 46  140/ 16/ 19   N/A           3/ 7
$$

ILZ025>027-034>036-040-047-049-050-058-095>099-281000-
WEST-CENTRAL ILLINOIS

CITY           SKY/WX    TMP DP  RH WIND       PRES   REMARKS
QUINCY         CLEAR     50  49  96 S5        29.71S
GALESBURG*     CLOUDY    49  48  98 CALM      29.72R FOG
MACOMB*        CLOUDY    49  49 100 S6        29.75R FOG
JACKSONVILLE*  CLEAR     51  50  96 CALM      29.74R FOG
PITTSFIELD*    FOG       51  50  99 S3        29.74R VSB 3/4
$$

ILZ028>032-037-038-041>044-048-051>054-059>061-281000-
CENTRAL ILLINOIS

CITY           SKY/WX    TMP DP  RH WIND       PRES   REMARKS
PONTIAC        MOCLDY    50  48  93 NE14      29.73S
BLOOMINGTON    MOCLDY    51  51 100 E12       29.72F
DECATUR        MOCLDY    55  51  86 NE7       29.72F
PEORIA         CLOUDY    53  50  89 E7        29.71R
LACON*         CLOUDY    48  46  93 E17G25    29.70R
LINCOLN*       CLOUDY    53  51  95 CALM      29.72R
SPRINGFIELD    PTCLDY    55  52  89 CALM      29.72S
TAYLORVILLE    CLEAR     54  54 100 CALM      29.72S
$$

ILZ033-039-045-046-055>057-062-063-281000-
EAST-CENTRAL ILLINOIS

CITY           SKY/WX    TMP DP  RH WIND       PRES   REMARKS
CHAMPAIGN      CLOUDY    56  53  90 SE3       29.73F
RANTOUL*       CLOUDY    57  55  92 NE5       29.73R
MATTOON        PTCLDY    54  52  93 E6        29.72R
PARIS*         TSTM      56  55  98 NE8       29.73F
$$

ILZ079-100>102-281000-
SOUTHWEST ILLINOIS

CITY           SKY/WX    TMP DP  RH WIND       PRES   REMARKS
ALTON          CLEAR     52  50  95 W5        29.75R
BELLEVILLE     CLEAR     57  57  97 SW6       29.73R
CAHOKIA*       CLEAR     59  52  77 W6        29.75R
SPARTA*        CLEAR     60  54  82 CALM      29.76S
$$

ILZ064>066-069>071-074>076-080>082-084>086-088>090-092>094-281000-
SOUTH-CENTRAL ILLINOIS

CITY           SKY/WX    TMP DP  RH WIND       PRES   REMARKS
CARBONDALE     PTCLDY    57  54  89 SW6       29.75R
CAIRO*         PTCLDY    65  64  96 SW3       29.76R
EFFINGHAM*     PTCLDY    58  58 100 CALM      29.73R
MARION         PTCLDY    59  57  94 CALM      29.76R
MT. VERNON     PTCLDY    63  55  77 SW7       29.73S
CENTRALIA*     CLEAR     62  58  87 W6        29.72S
SALEM*         PTCLDY    63  58  83 W6        29.72R
METROPOLIS*    MOCLDY    62  62 100 CALM      29.77R
$$

ILZ067-068-072-073-078-083-087-091-281000-
SOUTHEAST ILLINOIS

CITY           SKY/WX    TMP DP  RH WIND       PRES   REMARKS
LAWRENCEVILLE  CLOUDY    62  61  96 S6        29.74R
FLORA*         CLOUDY    64  63  95 CALM      29.72S
FAIRFIELD*     PTCLDY    60  60  99 S3        29.71S FOG
HARRISBURG*    PTCLDY    62  57  82 SW8       29.73R
ROBINSON*      CLOUDY    61  61  99 CALM      29.74R
CARMI*         CLOUDY    62  61  99 CALM      29.72R
$$

ABBREVIATIONS USED IN REMARKS
   TC - TEMPERATURE IN CELSIUS
  WCI - WIND CHILL INDEX
   HX - HEAT INDEX
  VSB - VISIBILITY
$$





USA.gov is the U.S. government's official web portal to all federal, state and local government web resources and services.